Catania, Italy

12:06 PM CET on February 12, 2016 (GMT +0100)
Fontanarossa

Weather History for LICC - April, 2014

Change the Weather History Date:

Thursday, April 10, 2014

  Actual Average Record
Temperature  
Mean Temperature 56 °F -  
Max Temperature 66 °F 71 °F 84 °F (2008)
Min Temperature 45 °F 49 °F 35 °F (2012)
Degree Days  
Heating Degree Days 10    
Growing Degree Days 6 (Base 50)    
Moisture  
Dew Point 48 °F    
Average Humidity 73    
Maximum Humidity 88    
Minimum Humidity 42    
Precipitation  
Precipitation 0.00 in 0.04 in - ()
Sea Level Pressure  
Sea Level Pressure 30.03 in    
Wind  
Wind Speed 6 mph ()    
Max Wind Speed 14 mph    
Max Gust Speed -    
Visibility 6.1 miles    
Events      
Averages and records for this station are not official NWS values.
T = Trace of Precipitation, MM = Missing Value Source: Averaged Metar Reports

Daily Weather History Graph

Daily Weather History Graph

Search for Another Location

Airport or City:

Trip Planner

Search our weather history database for the weather conditions in past years. The results will help you decide how hot, cold, wet, or windy it might be!

Date:

Astronomy

Apr. 10, 2014 Rise Set
Actual Time 6:32 AM CEST 7:30 PM CEST
Civil Twilight 6:05 AM CEST 7:57 PM CEST
Nautical Twilight 5:34 AM CEST 8:28 PM CEST
Astronomical Twilight 5:01 AM CEST 9:01 PM CEST
Moon 3:03 PM CEST (4/10) 3:40 AM CEST (4/10)
Length of Visible Light 13h 51m
Length of Day
12h 57m
Waxing Gibbous, 77% of the Moon is Illuminated
Apr 10
Waxing Gibbous
Apr 15
Full
Apr 22
Last Quarter
Apr 29
New
May 7
First Quarter

Hourly Weather History & Observations

Time (CEST) Temp. Windchill Dew Point Humidity Pressure Visibility Wind Dir Wind Speed Gust Speed Precip Events Conditions
12:20 AM 51.8 °F - 46.4 °F 82% 30.01 in - WSW 5.8 mph - N/A   Clear
12:50 AM 51.8 °F - 44.6 °F 76% 30.01 in - West 8.1 mph - N/A   Clear
1:20 AM 50.0 °F - 44.6 °F 82% 30.01 in - West 3.5 mph - N/A   Clear
1:50 AM 50.0 °F - 44.6 °F 82% 29.98 in - WSW 6.9 mph - N/A   Clear
2:00 AM 49 °F - 44 °F 79% 30.00 in 6 mi WSW 3.5 mph - -  
2:20 AM 48.2 °F - 44.6 °F 87% 29.98 in - WSW 5.8 mph - N/A   Clear
2:50 AM 48.2 °F - 42.8 °F 82% 29.98 in - WSW 3.5 mph - N/A   Clear
3:20 AM 46.4 °F - 42.8 °F 87% 29.98 in - Variable 2.3 mph - N/A   Clear
3:50 AM 48.2 °F - 44.6 °F 87% 29.98 in - Calm Calm - N/A   Clear
4:50 AM 46.4 °F 44.3 °F 42.8 °F 87% 29.98 in - West 4.6 mph - N/A   Clear
5:00 AM 46 °F - 43 °F 84% 30.00 in 6 mi West 5.8 mph - -  
5:20 AM 46.4 °F 45.2 °F 42.8 °F 87% 30.01 in - WNW 3.5 mph - N/A   Clear
5:50 AM 46.4 °F 45.2 °F 42.8 °F 87% 30.01 in - NW 3.5 mph - N/A   Clear
6:20 AM 48.2 °F - 42.8 °F 82% 30.01 in - WNW 3.5 mph - N/A   Clear
6:50 AM 46.4 °F 42.9 °F 42.8 °F 87% 30.01 in - West 6.9 mph - N/A   Clear
7:20 AM 50.0 °F - 44.6 °F 82% 30.01 in - WNW 3.5 mph - N/A   Clear
7:50 AM 53.6 °F - 44.6 °F 72% 30.01 in - West 8.1 mph - N/A   Clear
8:00 AM 54 °F - 45 °F 64% 30.03 in 6 mi West 5.8 mph - -  
8:20 AM 57.2 °F - 46.4 °F 67% 30.01 in - WSW 4.6 mph - N/A   Clear
8:50 AM 59.0 °F - 46.4 °F 63% 30.04 in - Variable 2.3 mph - N/A   Clear
9:20 AM 60.8 °F - 46.4 °F 59% 30.04 in - Variable 2.3 mph - N/A   Clear
9:50 AM 62.6 °F - 46.4 °F 55% 30.04 in - Variable 2.3 mph - N/A   Clear
10:20 AM 64.4 °F - 46.4 °F 52% 30.06 in - Variable 2.3 mph - N/A   Clear
10:50 AM 64.4 °F - 46.4 °F 52% 30.06 in - East 8.1 mph - N/A   Clear
11:00 AM 64 °F - 47 °F 42% 30.07 in 6 mi East 8.1 mph - -  
11:20 AM 64.4 °F - 44.6 °F 49% 30.06 in - East 6.9 mph - N/A   Clear
11:50 AM 66.2 °F - 46.4 °F 49% 30.06 in - ESE 6.9 mph - N/A   Clear
12:20 PM 64.4 °F - 46.4 °F 52% 30.04 in 6.2 mi ESE 10.4 mph - N/A   Partly Cloudy
12:50 PM 64.4 °F - 50.0 °F 59% 30.04 in 6.2 mi ESE 11.5 mph - N/A   Partly Cloudy
1:20 PM 64.4 °F - 53.6 °F 68% 30.04 in 6.2 mi ESE 10.4 mph - N/A   Scattered Clouds
1:50 PM 64.4 °F - 53.6 °F 68% 30.04 in 6.2 mi ESE 12.7 mph - N/A   Scattered Clouds
2:00 PM 64 °F - 53 °F 59% 30.05 in 6 mi ESE 12.7 mph - -   Partly Cloudy
2:20 PM 66.2 °F - 51.8 °F 60% 30.04 in 6.2 mi ESE 13.8 mph - N/A   Scattered Clouds
2:50 PM 64.4 °F - 51.8 °F 64% 30.04 in 6.2 mi ESE 12.7 mph - N/A   Scattered Clouds
3:20 PM 62.6 °F - 51.8 °F 68% 30.01 in 6.2 mi ESE 13.8 mph - N/A   Scattered Clouds
3:50 PM 62.6 °F - 51.8 °F 68% 30.01 in 6.2 mi ESE 13.8 mph - N/A   Scattered Clouds
4:20 PM 62.6 °F - 51.8 °F 68% 30.01 in 6.2 mi ESE 12.7 mph - N/A   Scattered Clouds
4:50 PM 62.6 °F - 51.8 °F 68% 30.01 in 6.2 mi ESE 12.7 mph - N/A   Scattered Clouds
5:00 PM 62 °F - 51 °F 58% 30.02 in 6 mi ESE 11.5 mph - -   Scattered Clouds
5:20 PM 60.8 °F - 51.8 °F 72% 30.01 in 6.2 mi ESE 11.5 mph - N/A   Scattered Clouds
5:50 PM 60.8 °F - 51.8 °F 72% 30.01 in 6.2 mi East 10.4 mph - N/A   Partly Cloudy
6:20 PM 60.8 °F - 51.8 °F 72% 30.04 in 6.2 mi East 11.5 mph - N/A   Scattered Clouds
6:50 PM 59.0 °F - 51.8 °F 77% 30.04 in 6.2 mi East 10.4 mph - N/A   Scattered Clouds
7:20 PM 59.0 °F - 51.8 °F 77% 30.04 in 6.2 mi East 9.2 mph - N/A   Scattered Clouds
7:50 PM 59.0 °F - 51.8 °F 77% 30.04 in 6.2 mi East 8.1 mph - N/A   Scattered Clouds
8:00 PM 58 °F - 52 °F 74% 30.06 in 6 mi East 6.9 mph - -   Scattered Clouds
8:20 PM 57.2 °F - 51.8 °F 82% 30.04 in 6.2 mi ESE 6.9 mph - N/A   Partly Cloudy
8:50 PM 57.2 °F - 51.8 °F 82% 30.06 in 6.2 mi ESE 6.9 mph - N/A   Partly Cloudy
9:20 PM 55.4 °F - 51.8 °F 88% 30.06 in 6.2 mi ESE 5.8 mph - N/A   Partly Cloudy
9:50 PM 55.4 °F - 51.8 °F 88% 30.06 in - ESE 6.9 mph - N/A   Clear
10:20 PM 55.4 °F - 51.8 °F 88% 30.09 in - East 4.6 mph - N/A   Clear
10:50 PM 55.4 °F - 51.8 °F 88% 30.09 in 6.2 mi ESE 2.3 mph - N/A   Partly Cloudy
11:00 PM 55 °F - 51 °F 82% 30.10 in 6 mi East 3.5 mph - -   Scattered Clouds
11:20 PM 55.4 °F - 50.0 °F 82% 30.09 in 6.2 mi East 3.5 mph - N/A   Partly Cloudy
11:50 PM 53.6 °F - 50.0 °F 88% 30.09 in 6.2 mi East 4.6 mph - N/A   Partly Cloudy